Weather History for VTSG - February, 2014

Change the Weather History Date:

Tuesday, February 4, 2014

  Actual Average Record
Temperature  
Mean Temperature 76 °F -  
Max Temperature 91 °F - - ()
Min Temperature 60 °F - - ()
Cooling Degree Days 10    
Growing Degree Days 26 (Base 50)    
Moisture  
Dew Point 65 °F    
Average Humidity 71    
Maximum Humidity 100    
Minimum Humidity 34    
Precipitation  
Precipitation 0.00 in - - ()
Sea Level Pressure  
Sea Level Pressure 29.76 in    
Wind  
Wind Speed 3 mph ()    
Max Wind Speed 13 mph    
Max Gust Speed -    
Visibility 4.5 miles    
Events      
T = Trace of Precipitation, MM = Missing Value Source: Averaged Metar Reports

Daily Weather History Graph

Daily Weather History Graph

Search for Another Location

Airport or City:

Trip Planner

Search our weather history database for the weather conditions in past years. The results will help you decide how hot, cold, wet, or windy it might be!

Date:

Astronomy

Feb. 04, 2014 Rise Set
Actual Time 6:43 AM ICT 6:32 PM ICT
Civil Twilight 6:22 AM ICT 6:53 PM ICT
Nautical Twilight 5:57 AM ICT 7:18 PM ICT
Astronomical Twilight 5:32 AM ICT 7:43 PM ICT
Moon 10:08 AM ICT (2/4) 10:41 PM ICT (2/4)
Length of Visible Light 12h 31m
Length of Day
11h 48m
Waxing Crescent, 24% of the Moon is Illuminated
Feb 4
Waxing Crescent
Feb 7
First Quarter
Feb 15
Full
Feb 23
Last Quarter
Mar 1
New

Hourly Weather History & Observations

Time (ICT) Temp. Heat Index Dew Point Humidity Pressure Visibility Wind Dir Wind Speed Gust Speed Precip Events Conditions
12:00 AM 66.2 °F - 64.4 °F 94% 29.80 in 5.0 mi Calm Calm - N/A   Unknown
1:00 AM 64.4 °F - 62.6 °F 94% 29.80 in 4.3 mi Calm Calm - N/A   Unknown
2:00 AM 62.6 °F - 60.8 °F 94% 29.77 in 4.3 mi Calm Calm - N/A   Unknown
3:00 AM 62.6 °F - 60.8 °F 94% 29.77 in 4.3 mi Calm Calm - N/A   Unknown
6:00 AM 60.8 °F - 59.0 °F 94% 29.77 in 4.3 mi Calm Calm - N/A   Unknown
7:00 AM 60.8 °F - 60.8 °F 100% 29.77 in 1.6 mi Calm Calm - N/A   Mist
8:00 AM 66.2 °F - 64.4 °F 94% 29.80 in 3.1 mi Calm Calm - N/A   Mist
9:00 AM 75.2 °F - 66.2 °F 73% 29.80 in - Variable 2.3 mph - N/A   Clear
10:00 AM 82.4 °F 85.4 °F 68.0 °F 62% 29.80 in - Variable 2.3 mph - N/A   Clear
11:00 AM 87.8 °F 88.5 °F 62.6 °F 43% 29.80 in - Variable 3.5 mph - N/A   Clear
12:00 PM 91.4 °F 90.7 °F 59.0 °F 34% 29.77 in - Variable 2.3 mph - N/A   Clear
1:00 PM 91.4 °F 93.2 °F 64.4 °F 41% 29.74 in - SSW 9.2 mph - N/A   Clear
2:00 PM 91.4 °F 93.2 °F 64.4 °F 41% 29.71 in 6.2 mi SW 11.5 mph - N/A   Partly Cloudy
3:00 PM 91.4 °F 91.4 °F 60.8 °F 36% 29.68 in 6.2 mi SSW 12.7 mph - N/A   Partly Cloudy
4:00 PM 87.8 °F 91.4 °F 68.0 °F 52% 29.68 in 6.2 mi SSW 12.7 mph - N/A   Partly Cloudy
5:00 PM 86.0 °F 90.4 °F 69.8 °F 58% 29.68 in - SW 11.5 mph - N/A   Clear
6:00 PM 82.4 °F 88.2 °F 73.4 °F 74% 29.71 in 5.6 mi SSW 10.4 mph - N/A   Unknown
7:00 PM 78.8 °F - 71.6 °F 78% 29.71 in 5.0 mi SSW 6.9 mph - N/A   Unknown
8:00 PM 78.8 °F - 69.8 °F 74% 29.74 in 5.0 mi SSW 5.8 mph - N/A   Unknown
9:00 PM 75.2 °F - 69.8 °F 83% 29.77 in 3.1 mi Calm Calm - N/A   Mist
11:00 PM 71.6 °F - 68.0 °F 88% 29.80 in 3.1 mi Calm Calm - N/A   Mist